Regional Weather Roundup
Issued by NWS Wilmington, NC

Current Version | Previous Version | Text Only | Print | Product List | Glossary On
Versions: 1 2 3 4 5 6 7 8 9 10 11 12 13 14 15 16 17 18 19 20 21 22 23 24 25 26 27
000
ASUS42 KILM 241813
RWRILM
RWRILM
REGIONAL HOURLY WEATHER ROUNDUP
NATIONAL WEATHER SERVICE WILMINGTON NC
100 PM EST SAT FEB 24 2018

NOTE: "FAIR" INDICATES FEW OR NO CLOUDS BELOW 12,000 FEET WITH NO
SIGNIFICANT WEATHER AND/OR OBSTRUCTIONS TO VISIBILITY.

...............WFO WILMINGTON COUNTY WARNING AREA...............

......COASTAL NC AND SC COUNTIES......

CITY           SKY/WX    TMP DP  RH WIND       PRES   REMARKS
WILMINGTON     FAIR      75  63  66 W12       30.19F
N MYRTLE BEACH FAIR      73  65  75 S14       30.21F
MYRTLE BEACH   FAIR      72  64  76 S13       30.22F

......INLAND NC AND SC COUNTIES.......

CITY           SKY/WX    TMP DP  RH WIND       PRES   REMARKS
LUMBERTON      FAIR      76  62  62 SW13      30.18F
ELIZABETHTOWN  NOT AVBL
WHITEVILLE     FAIR      75  61  60 SW8       30.19F
FLORENCE       FAIR      79  60  52 SW14      30.19F
DARLINGTON     FAIR      78  62  57 S17G23    30.18F
KINGSTREE      PTSUNNY   73  61  64 SW8       30.20F
HARTSVILLE     FAIR      79  59  50 SW9       30.18F
BENNETTSVILLE  FAIR      79  63  57 SW10G16   30.18F
CONWAY         FAIR      77  61  57 SW7G16    30.20F
GEORGETOWN     CLOUDY    75  64  69 SW9       30.22F
MARION         PTSUNNY   77  61  57 SW9G18    30.20F

....................REST OF NORTH CAROLINA......................

.........EASTERN NC.........

CITY           SKY/WX    TMP DP  RH WIND       PRES   REMARKS
CAPE HATTERAS  CLOUDY    68  61  78 SW9       30.20F
JACKSONVILLE   FAIR      76  64  66 SW8       30.19F
MOREHEAD CITY  FAIR      70  64  81 SW12      30.20F
KENANSVILLE    PTSUNNY   75  61  60 W14       30.19F
NEW BERN       FAIR      76  62  62 SW12      30.19F
ELIZABETH CITY FAIR      74  64  71 SW15      30.15F

.........CENTRAL NC.........

CITY           SKY/WX    TMP DP  RH WIND       PRES   REMARKS
RALEIGH DURHAM PTSUNNY   72  60  66 SW16      30.17F
ROCKY MOUNT    CLOUDY    72  60  66 SW13      30.17F
ROANOKE RAPIDS NOT AVBL
FAYETTEVILLE   FAIR      74  62  66 SW12      30.18F
HOFFMAN        FAIR      76  61  59 S10       30.17F

.........WESTERN NC.........

CITY           SKY/WX    TMP DP  RH WIND       PRES   REMARKS
CHARLOTTE      FAIR      75  63  66 SW15      30.17F
GREENSBORO     PTSUNNY   73  62  68 SW15G25   30.13F
HICKORY        NOT AVBL
BOONE          NOT AVBL
ASHEVILLE      NOT AVBL

.....................REST OF SOUTH CAROLINA.....................

.........EASTERN SC.........

CITY           SKY/WX    TMP DP  RH WIND       PRES   REMARKS
CHARLESTON     FAIR      82  62  50 S18       30.20F
BEAUFORT MCAS  CLOUDY    80  67  64 S12G18    30.20F
HILTON HEAD    MOSUNNY   77  64  65 S14       30.24F

.........CENTRAL SC.........

CITY           SKY/WX    TMP DP  RH WIND       PRES   REMARKS
COLUMBIA       PTSUNNY   80  62  54 SW12      30.17F
ORANGEBURG     FAIR      77  61  57 SW13      30.19F
SUMTER SHAW    PTSUNNY   79  60  50 S15G22    30.16F

.........WESTERN SC.........

CITY           SKY/WX    TMP DP  RH WIND       PRES   REMARKS
GREENVILLE     NOT AVBL
ROCK HILL      PTSUNNY   75  62  64 SW14G24   30.16F
ANDERSON       LGT RAIN  77  59  53 SW20G26   30.15F
CLEMSON        NOT AVBL
GREENWOOD      PTSUNNY   77  61  57 SW14      30.17F


...................COASTAL AND OFFSHORE REPORTS..................

................LOCAL PIERS AND NC RESERVE................


STATION/POSITION TIME  SKY/WX   TEMP    WIND        PRES    VSBY
                                AIR SEA DIR/SP/G
                 (UTC)          (F)     (DEG/KT/KT) (MB)    (MI)
JOHNY MRCER PIER 1748            64 59  180/ 14/ 16 1022.7F
NC RESRV MASNBRO NOT AVBL
OCEAN CREST PIER NOT AVBL
SPRINGMAID  PIER 1748                               1026.4F


................COASTAL AND OFFSHORE BUOYS................


STATION/POSITION TIME  SKY/WX   TEMP    WIND        PRES    VSBY
                                AIR SEA DIR/SP/G
                 (UTC)          (F)     (DEG/KT/KT) (MB)    (MI)
DIMNDSHOAL 41025 1800            70     250/ 17/ 21 1022.8
CAPE LOOKOUT     1800                   210/ 11/ 14 1023.0F
ONSLOW BAY 41036 NOT AVBL
ONSLOW BAY 41064 1708            70 68  230/ 10/ 12 1024.1F
ONSLOW BAY 41159 1800               69                N/A
WVE H/P(F/S)=  4/ 9 SWL H/P/D(F/S/D)=  2/130/11

MASNBO INL 41110 1759               60                N/A
WVE H/P(F/S)=  3/ 9 SWL H/P/D(F/S/D)=  2/120/11

WILM HARBR 41108 1800               60                N/A
WVE H/P(F/S)=  3/ 9 SWL H/P/D(F/S/D)=  2/160/11

27SE WRITB 41037 1708            69 69  240/ 14/ 19 1024.2F
FRYING PAN 41013 1800                   250/ 10/ 12 1023.5
SUNST NRSH 41024 1708            63 63  200/  6/  8 1023.7F
CAPRS NRSH 41029 1708            65 65  210/  8/ 10 1024.0F
EDISTO     41004 1800            71     220/  6/  8 1024.0


..........OFFSHORE BUOYS BEYOND 100 NM OFFSHORE...........
.....IN A TRIANGLE---HAT TO BERMUDA TO BAHAMAS TO HAT.....


STATION/POSITION TIME  SKY/WX   TEMP    WIND        PRES    VSBY
                                AIR SEA DIR/SP/G
                 (UTC)          (F)     (DEG/KT/KT) (MB)    (MI)
150E HAT   41001 NOT AVBL
W BERMUDA  41048 1800            69     250/  6/ 10 1026.8
ATLANTIC S 41049 1750            72 75  360/ 14/ 17 1024.2F
WVE H/P(F/S)=  5/10 SWL H/P/D(F/S/D)=  5/140/10

E BAHAMAS  41046 1800                    80/ 17/ 21 1022.2
NE BAHAMAS 41047 1750                   100/ 12/ 16 1025.4F
WVE H/P(F/S)=  6/10 SWL H/P/D(F/S/D)=  5/140/10

120E CANVRL41010 NOT AVBL

END




USA.gov is the U.S. government's official web portal to all federal, state and local government web resources and services.